This is the latest recevied weather packets stored in our database for station/object W5GMO. If no packets are shown the sender has not sent any weather packets the latest 10 day(s).
| Time | Temp. | Humidity | Pressure | Rain* | Wind** | Luminosity | Snow |
|---|---|---|---|---|---|---|---|
| 1787936481 | 31.67° C | 1% | 1017 hPa | 0 mm | - | 290 W/m² | - |
| 1787936180 | 31.11° C | 1% | 1016.8 hPa | 0 mm | - | 530 W/m² | - |
| 1787935875 | 30.56° C | 1% | 1016.8 hPa | 0 mm | - | 763 W/m² | - |
| 1787935571 | 30.56° C | 1% | 1017 hPa | 0 mm | - | 773 W/m² | - |
| 1787935267 | 30.56° C | 1% | 1016.8 hPa | 0 mm | - | 483 W/m² | - |
| 1787934962 | 30.56° C | 1% | 1016.8 hPa | 0 mm | - | 785 W/m² | - |
| 1787934657 | 31.11° C | 1% | 1016.9 hPa | 0 mm | - | 796 W/m² | - |
| 1787934357 | 30.56° C | 1% | 1017 hPa | 0 mm | - | 782 W/m² | - |
| 1787934056 | 30.56° C | 1% | 1016.9 hPa | 0 mm | - | 770 W/m² | - |
| 1787933755 | 30° C | 1% | 1017.2 hPa | 0 mm | - | 753 W/m² | - |
| 1787933451 | 30° C | 1% | 1017.3 hPa | 0 mm | - | 262 W/m² | - |
| 1787933150 | 30.56° C | 1% | 1017.2 hPa | 0 mm | - | 271 W/m² | - |
| 1787932845 | 29.44° C | 1% | 1017.1 hPa | 0 mm | - | 762 W/m² | - |
| 1787932538 | 30° C | 1% | 1017.2 hPa | 0 mm | - | 326 W/m² | - |
| 1787932234 | 29.44° C | 1% | 1017.4 hPa | 0 mm | - | 360 W/m² | - |
| 1787931933 | 28.89° C | 1% | 1017.3 hPa | 0 mm | - | 796 W/m² | - |
| 1787931633 | 28.89° C | 1% | 1017.3 hPa | 0 mm | - | 338 W/m² | - |
| 1787931332 | 29.44° C | 1% | 1017.4 hPa | 0 mm | - | 280 W/m² | - |
| 1787931027 | 30° C | 1% | 1017.1 hPa | 0 mm | - | 345 W/m² | - |
| 1787930726 | 29.44° C | 1% | 1017.4 hPa | 0 mm | - | 367 W/m² | - |
| 1787930421 | 28.89° C | 1% | 1017.2 hPa | 0 mm | - | 290 W/m² | - |
| 1787930117 | 30° C | 1% | 1017.1 hPa | 0 mm | - | 678 W/m² | - |
| 1787929815 | 30° C | 1% | 1017.4 hPa | 0 mm | - | 642 W/m² | - |
| 1787929511 | 29.44° C | 1% | 1017.3 hPa | 0 mm | - | 619 W/m² | - |
| 1787929210 | 29.44° C | 1% | 1017.5 hPa | 0 mm | - | 607 W/m² | - |
* Rain latest hour (hover to see other rain measurements)
** Current wind speed in m/s (hover to see current wind gust speed)